Location: Arrien
(42.8963°N, 1.0429°E)
Time: 20:39:50
(UTC+00:00)

SL-16 R/B - Pass Details

Date: 18 March 2026
Orbit: 841 x 845 km, 71.0° (Epoch: 11 April)

Event Time Altitude Azimuth Distance (km) Brightness Sun altitude
Exits shadow 01:11:01 11° 1° (N) 2,400 5.0 -45.5°
Drops below altitude 10° 01:11:16 10° 2° (N) 2,473 5.1 -45.5°
Sets 01:14:13 0° 16° (NNE) 3,412 6.1 -45.3°
